Date String (YYYY-MM-DD hh:mm:ss) UTC,Instrument flags,Ambient pressure (hPa),Sample flow (lpm),Bypass flow (lpm),Sample temperature (°C),Ambient temperature (°C),ASC tube jacket temperature (°C),LED temperature (°C),Box temperature (°C),Sample RH (%),Span deviation,Mass concentration (μg/m³),Mass concentration (μg/m³),Mass concentration (μg/m³)
DateTimeUTC,F1_M11,P_M11,Q1_M11,Q2_M11,T1_M11,T2_M11,T3_M11,T4_M11,T5_M11,U1_M11,ZSPAN_M11,X0_M11,X2_M11,X1_M11
2022-04-07 03:00:00,,0831.2,5.00,0.00,21.7,20.8,00.0,30.9,23.3,07.0,0000.0,0006.11,0001.72,0000.55
2022-04-07 03:01:00,,0831.2,4.99,0.00,21.7,20.8,00.0,30.8,23.3,07.0,0000.0,0005.61,0001.65,0000.54
2022-04-07 03:02:00,,0831.2,5.00,0.00,21.6,20.8,00.0,30.8,23.3,07.0,0000.0,0005.55,0001.60,0000.54
2022-04-07 03:03:00,,0831.2,5.00,0.00,21.6,20.8,00.0,30.8,23.2,07.0,0000.0,0006.21,0001.58,0000.52
2022-04-07 03:04:00,,0831.2,5.00,0.00,21.6,20.7,00.0,30.8,23.2,07.0,0000.0,0006.44,0001.56,0000.51
2022-04-07 03:05:00,,0831.2,5.01,0.00,21.6,20.8,00.0,30.8,23.2,07.0,0000.0,0006.05,0001.52,0000.51
2022-04-07 03:06:00,,0831.4,4.99,0.00,21.7,21.4,00.0,30.8,23.5,07.0,0000.0,0006.79,0001.56,0000.50
2022-04-07 03:07:00,,0831.4,5.00,0.00,21.8,22.3,00.0,30.8,23.8,07.0,0000.0,0007.20,0001.58,0000.50
2022-04-07 03:08:00,,0831.4,5.00,0.00,22.0,23.0,00.0,30.9,24.0,06.9,0000.0,0007.41,0001.57,0000.50
2022-04-07 03:09:00,,0831.4,5.01,0.00,22.0,22.7,00.0,30.9,24.0,06.9,0000.0,0007.46,0001.55,0000.51
2022-04-07 03:10:00,,0831.4,5.00,0.00,22.0,22.4,00.0,30.9,23.9,06.8,0000.0,0007.41,0001.53,0000.51
2022-04-07 03:11:00,,0831.4,5.00,0.00,22.0,22.1,00.0,30.9,23.8,06.8,0000.0,0007.27,0001.44,0000.51
2022-04-07 03:12:00,,0831.4,4.99,0.00,22.0,21.9,00.0,30.9,23.7,06.8,0000.0,0007.76,0001.40,0000.51
2022-04-07 03:13:00,,0831.4,4.99,0.00,22.0,21.7,00.0,30.9,23.7,06.8,0000.0,0007.71,0001.41,0000.51
2022-04-07 03:14:00,,0831.4,5.01,0.00,21.9,21.5,00.0,30.9,23.6,06.8,0000.0,0007.37,0001.39,0000.50
2022-04-07 03:15:00,,0831.4,5.01,0.00,21.9,21.4,00.0,30.9,23.6,06.8,0000.0,0006.85,0001.35,0000.49
2022-04-07 03:16:00,,0831.4,4.98,0.00,21.9,21.3,00.0,30.9,23.6,06.8,0000.0,0006.99,0001.34,0000.48
2022-04-07 03:17:00,,0831.4,5.01,0.00,21.8,21.2,00.0,30.9,23.5,06.8,0000.0,0005.82,0001.30,0000.48
2022-04-07 03:18:00,,0831.4,5.01,0.00,21.8,21.1,00.0,30.9,23.5,06.8,0000.0,0005.32,0001.22,0000.47
2022-04-07 03:19:00,,0831.4,4.99,0.00,21.8,21.1,00.0,30.9,23.5,06.8,0000.0,0005.29,0001.25,0000.46
2022-04-07 03:20:00,,0831.4,5.01,0.00,21.8,21.0,00.0,30.9,23.4,06.8,0000.0,0005.39,0001.32,0000.46
2022-04-07 03:21:00,,0831.4,4.99,0.00,21.7,21.0,00.0,30.9,23.3,06.8,0000.0,0005.28,0001.30,0000.45
2022-04-07 03:22:00,,0831.3,5.01,0.00,21.7,20.9,00.0,30.9,23.3,06.9,0000.0,0005.20,0001.30,0000.44
2022-04-07 03:23:00,,0831.4,5.01,0.00,21.7,20.9,00.0,30.8,23.3,06.8,0000.0,0004.55,0001.34,0000.45
2022-04-07 03:24:00,,0831.4,5.01,0.00,21.6,20.9,00.0,30.8,23.3,06.9,0000.0,0004.57,0001.35,0000.44
2022-04-07 03:25:00,,0831.4,5.00,0.00,21.6,20.8,00.0,30.8,23.2,06.9,0000.0,0004.43,0001.30,0000.44
2022-04-07 03:26:00,,0831.4,4.99,0.00,21.6,20.8,00.0,30.8,23.2,06.9,0000.0,0004.05,0001.30,0000.45
2022-04-07 03:27:00,,0831.4,5.00,0.00,21.6,20.8,00.0,30.8,23.2,06.9,0000.0,0003.40,0001.31,0000.45
2022-04-07 03:28:00,,0831.4,5.01,0.00,21.6,20.8,00.0,30.7,23.2,06.9,0000.0,0003.37,0001.29,0000.44
2022-04-07 03:29:00,,0831.5,5.00,0.00,21.5,20.8,00.0,30.7,23.2,06.9,0000.0,0003.34,0001.28,0000.45
2022-04-07 03:30:00,,0831.6,5.00,0.00,21.5,20.7,00.0,30.7,23.2,06.9,0000.0,0003.03,0001.24,0000.44
2022-04-07 03:31:00,,0831.6,5.00,0.00,21.5,20.7,00.0,30.7,23.2,06.9,0000.0,0002.96,0001.19,0000.44
2022-04-07 03:32:00,,0831.6,5.00,0.00,21.5,20.7,00.0,30.7,23.1,06.9,0000.0,0004.27,0001.17,0000.43
2022-04-07 03:33:00,,0831.6,5.01,0.00,21.5,20.7,00.0,30.7,23.1,06.9,0000.0,0004.40,0001.18,0000.43
2022-04-07 03:34:00,,0831.5,5.00,0.00,21.5,20.8,00.0,30.6,23.2,06.8,0000.0,0004.05,0001.09,0000.43
2022-04-07 03:35:00,,0831.6,5.00,0.00,21.6,21.4,00.0,30.7,23.4,06.8,0000.0,0003.89,0001.01,0000.42
2022-04-07 03:36:00,,0831.6,5.01,0.00,21.7,22.4,00.0,30.7,23.7,06.8,0000.0,0003.82,0001.00,0000.42
2022-04-07 03:37:00,,0831.7,4.99,0.00,21.9,23.0,00.0,30.7,23.9,06.8,0000.0,0004.14,0000.99,0000.41
2022-04-07 03:38:00,,0831.7,5.01,0.00,22.0,22.8,00.0,30.8,23.9,06.7,0000.0,0004.66,0000.96,0000.41
2022-04-07 03:39:00,,0831.7,4.99,0.00,22.0,22.4,00.0,30.8,23.9,06.8,0000.0,0004.65,0000.94,0000.41
2022-04-07 03:40:00,,0831.6,5.00,0.00,22.0,22.2,00.0,30.8,23.8,06.8,0000.0,0004.88,0000.93,0000.40
2022-04-07 03:41:00,,0831.7,5.02,0.00,22.0,22.0,00.0,30.8,23.8,06.6,0000.0,0006.05,0000.94,0000.41
2022-04-07 03:42:00,,0831.7,4.99,0.00,21.9,21.8,00.0,30.8,23.7,06.6,0000.0,0007.55,0000.93,0000.41
2022-04-07 03:43:00,,0831.7,5.01,0.00,21.9,21.6,00.0,30.9,23.6,06.6,0000.0,0006.38,0000.94,0000.41
2022-04-07 03:44:00,,0831.7,4.99,0.00,21.9,21.5,00.0,30.9,23.6,06.7,0000.0,0006.39,0000.96,0000.41
2022-04-07 03:45:00,,0831.7,5.01,0.00,21.9,21.4,00.0,30.9,23.6,06.8,0000.0,0006.71,0000.99,0000.41
2022-04-07 03:46:00,,0831.7,5.01,0.00,21.9,21.3,00.0,30.9,23.6,06.8,0000.0,0007.20,0001.04,0000.42
2022-04-07 03:47:00,,0831.7,4.98,0.00,21.9,21.3,00.0,30.9,23.6,06.6,0000.0,0007.48,0001.10,0000.42
2022-04-07 03:48:00,,0831.6,5.01,0.00,21.9,21.2,00.0,30.9,23.6,06.5,0000.0,0007.28,0001.14,0000.42
2022-04-07 03:49:00,,0831.7,5.00,0.00,21.8,21.1,00.0,30.9,23.5,06.4,0000.0,0006.75,0001.14,0000.44
2022-04-07 03:50:00,,0831.7,5.01,0.00,21.8,21.1,00.0,30.9,23.5,06.4,0000.0,0006.86,0001.21,0000.45
2022-04-07 03:51:00,,0831.7,5.00,0.00,21.8,21.0,00.0,30.8,23.5,06.5,0000.0,0006.66,0001.25,0000.45
2022-04-07 03:52:00,,0831.7,5.00,0.00,21.8,21.0,00.0,30.8,23.5,06.4,0000.0,0005.29,0001.26,0000.44
2022-04-07 03:53:00,,0831.7,5.00,0.00,21.8,21.0,00.0,30.8,23.5,06.4,0000.0,0003.75,0001.23,0000.44
2022-04-07 03:54:00,,0831.7,4.98,0.00,21.8,21.0,00.0,30.8,23.4,06.5,0000.0,0003.59,0001.19,0000.44
2022-04-07 03:55:00,,0831.8,5.00,0.00,21.8,21.0,00.0,30.8,23.4,06.5,0000.0,0003.43,0001.15,0000.45
2022-04-07 03:56:00,,0831.9,5.01,0.00,21.7,20.9,00.0,30.8,23.4,06.5,0000.0,0003.01,0001.10,0000.45
2022-04-07 03:57:00,,0831.8,5.00,0.00,21.7,20.9,00.0,30.8,23.4,06.5,0000.0,0002.38,0001.03,0000.45
2022-04-07 03:58:00,,0831.9,4.98,0.00,21.7,20.9,00.0,30.8,23.4,06.5,0000.0,0002.35,0000.99,0000.46
2022-04-07 03:59:00,,0831.8,5.01,0.00,21.7,20.9,00.0,30.8,23.4,06.5,0000.0,0002.28,0000.96,0000.46
